STARLINK-34242 (64727 NORAD) Tracking and Keplerian Element Data

This shows tracking and keplerian element data for the satellite.

Feedback or suggestion? Click here.




ElementValue
Catalog64727
NameSTARLINK-34242
Epoch Orbit2750
Epoch Day353.97602435
Epoch Year2025
RAAN191.5698
Inclination53.1572
Eccentricity0.0001348
Argument of Perigee100.7538
Mean Anonmoly259.3614
Mean Motion15.30209105
Decay Rate0.0001259
L11 64727U 25144D 25353.97602435 .00012590 00000+0 43637-3 0 9998
L22 64727 53.1572 191.5698 0001348 100.7538 259.3614 15.30209105 27500



Live tracking and technical data element details for STARLINK-34242 (NORAD 64727). STARLINK-34242 can be tracked NOW for your location showing map with azimuth and elevation plus other details from your city location.







IsCatalogInMostPopularTable: catalog: 64727, numindb: 13
Update: records affected: 1



GetName: 64727 STARLINK-34242

Hit Count: updated at: Thu, 21 May 2026 11:05:31 GMT